Weather History for Deadman Valley, NT

Change the Weather History Date:

Thursday, November 8, 2012

  Actual Average Record
Temperature  
Mean Temperature -7 °F -  
Max Temperature 7 °F - - ()
Min Temperature -21 °F - - ()
Degree Days  
Heating Degree Days 72    
Moisture  
Dew Point -17 °F    
Average Humidity 75    
Maximum Humidity 81    
Minimum Humidity 64    
Precipitation  
Precipitation 0.00 in - - ()
Sea Level Pressure  
Sea Level Pressure 30.59 in    
Wind  
Wind Speed 15 mph ()    
Max Wind Speed 37 mph    
Max Gust Speed -    
T = Trace of Precipitation, MM = Missing Value Source: Averaged Metar Reports

Daily Weather History Graph

Daily Weather History Graph

Search for Another Location

Airport:

Trip Planner

Search our weather history database for the weather conditions in past years. The results will help you decide how hot, cold, wet, or windy it might be!

Date:

Astronomy

Nov. 08, 2012 Rise Set
Actual Time 9:06 AM MST 4:55 PM MST
Civil Twilight 8:17 AM MST 5:45 PM MST
Nautical Twilight 7:24 AM MST 6:38 PM MST
Astronomical Twilight 6:33 AM MST 7:28 PM MST
Moon 1:32 AM MST (11/8) 3:04 PM MST (11/8)
Length of Visible Light 9h 28m
Length of Day
7h 48m
Waning Crescent, 32% of the Moon is Illuminated
Nov 8
Waning Crescent
Nov 13
New
Nov 20
First Quarter
Nov 28
Full
Dec 6
Last Quarter

Hourly Weather History & Observations

Time (MST) Temp. Windchill Dew Point Humidity Pressure Visibility Wind Dir Wind Speed Gust Speed Precip Events Conditions
12:00 AM -14.1 °F -38.9 °F -18.9 °F 79% 30.62 in - North 17.3 mph - N/A   Unknown
1:00 AM -16.1 °F -47.6 °F -20.9 °F 79% 30.62 in - North 29.9 mph - N/A   Unknown
2:00 AM -16.2 °F -38.4 °F -21.3 °F 78% 30.62 in - North 12.7 mph - N/A   Unknown
3:00 AM -17.3 °F - -22.5 °F 77% 30.62 in - Calm Calm - N/A   Unknown
4:00 AM -17.7 °F -39.3 °F -22.7 °F 78% 30.61 in - North 11.5 mph - N/A   Unknown
5:00 AM -19 °F - -24 °F 64% 30.61 in - Calm Calm - -  
5:00 AM -19.1 °F -43.8 °F -24.3 °F 77% 30.61 in - North 15.0 mph - N/A   Unknown
6:00 AM -20.0 °F -55.6 °F -25.8 °F 75% 30.60 in - North 36.8 mph - N/A   Unknown
7:00 AM -21.1 °F -50.7 °F -27.0 °F 74% 30.61 in - North 21.9 mph - N/A   Unknown
8:00 AM -20.0 °F -54.8 °F -25.2 °F 77% 30.60 in - North 34.5 mph - N/A   Unknown
9:00 AM -19.5 °F -40.4 °F -24.5 °F 78% 30.60 in - North 10.4 mph - N/A   Unknown
10:00 AM -16.4 °F -48.6 °F -21.6 °F 77% 30.60 in - North 31.1 mph - N/A   Unknown
11:00 AM -6 °F - -11 °F 70% 30.59 in - Calm Calm - -  
11:00 AM -6.0 °F -23.6 °F -10.7 °F 80% 30.59 in - North 10.4 mph - N/A   Unknown
12:00 PM 0.7 °F -13.3 °F -5.3 °F 76% 30.58 in - North 8.1 mph - N/A   Unknown
1:00 PM 6.1 °F -8.7 °F -1.8 °F 70% 30.57 in - North 10.4 mph - N/A   Unknown
2:00 PM 6.6 °F -8.8 °F -1.5 °F 69% 30.56 in - North 11.5 mph - N/A   Unknown
3:00 PM 7.2 °F -8.1 °F -0.8 °F 70% 30.56 in - North 11.5 mph - N/A   Unknown
4:00 PM -0.4 °F -8.3 °F -5.6 °F 79% 30.56 in - North 3.5 mph - N/A   Unknown
5:00 PM -6 °F - -10 °F 73% 30.56 in - Calm Calm - -  
5:00 PM -5.6 °F -26.6 °F -10.1 °F 81% 30.56 in - North 15.0 mph - N/A   Unknown
6:00 PM -9.9 °F -23.4 °F -14.4 °F 81% 30.57 in - North 5.8 mph - N/A   Unknown
7:00 PM -11.9 °F - -17.1 °F 78% 30.58 in - North 1.2 mph - N/A   Unknown
9:00 PM -16.1 °F -39.1 °F -21.3 °F 77% 30.61 in - North 13.8 mph - N/A   Unknown
10:00 PM -17.9 °F -51.0 °F -23.8 °F 74% 30.61 in - North 32.2 mph - N/A   Unknown
11:00 PM -18 °F - -23 °F 64% 30.62 in - Calm Calm - -  
11:00 PM -17.9 °F -46.4 °F -23.3 °F 76% 30.62 in - North 21.9 mph - N/A   Unknown